Weather History for MRLB - April, 2013

Change the Weather History Date:

Monday, April 29, 2013

  Actual Average Record
Temperature  
Mean Temperature 82 °F -  
Max Temperature 95 °F 90 °F 96 °F (1998)
Min Temperature 69 °F 76 °F 69 °F (2006)
Cooling Degree Days 17    
Growing Degree Days 32 (Base 50)    
Moisture  
Dew Point 65 °F    
Average Humidity 49    
Maximum Humidity 83    
Minimum Humidity 24    
Precipitation  
Precipitation 0.00 in - - ()
Sea Level Pressure  
Sea Level Pressure 29.81 in    
Wind  
Wind Speed 5 mph ()    
Max Wind Speed 14 mph    
Max Gust Speed -    
Visibility 8.0 miles    
Events      
Averages and records for this station are not official NWS values.
T = Trace of Precipitation, MM = Missing Value Source: Averaged Metar Reports

Daily Weather History Graph

Daily Weather History Graph

Search for Another Location

Airport or City:

Trip Planner

Search our weather history database for the weather conditions in past years. The results will help you decide how hot, cold, wet, or windy it might be!

Date:

Astronomy

Apr. 29, 2013 Rise Set
Actual Time 5:24 AM CST 5:54 PM CST
Civil Twilight 5:03 AM CST 6:16 PM CST
Nautical Twilight 4:37 AM CST 6:41 PM CST
Astronomical Twilight 4:11 AM CST 7:07 PM CST
Moon 10:04 PM CST (4/29) 9:01 AM CST (4/29)
Length of Visible Light 13h 13m
Length of Day
12h 29m
Waning Gibbous, 79% of the Moon is Illuminated
Apr 29
Waning Gibbous
May 2
Last Quarter
May 9
New
May 17
First Quarter
May 24
Full

Hourly Weather History & Observations

Time (CST) Temp. Heat Index Dew Point Humidity Pressure Visibility Wind Dir Wind Speed Gust Speed Precip Events Conditions
6:00 AM 72 °F - 65 °F 74% 29.84 in 12 mi East 2.3 mph - -   Overcast
6:00 AM 71.6 °F - 66.2 °F 83% 29.82 in - East 2.3 mph - N/A   Clear
7:00 AM 77.0 °F - 66.2 °F 69% 29.85 in - SE 3.5 mph - N/A   Clear
8:00 AM 84.2 °F 86.6 °F 66.2 °F 55% 29.86 in - ESE 2.3 mph - N/A   Clear
9:00 AM 87 °F - 64 °F 37% 29.87 in 12 mi SSE 3.5 mph - -   Clear
9:00 AM 86.0 °F 87.3 °F 64.4 °F 48% 29.86 in - SSE 3.5 mph - N/A   Clear
10:00 AM 89.6 °F 91.1 °F 64.4 °F 43% 29.85 in 6.2 mi South 4.6 mph - N/A   Mostly Cloudy
11:00 AM 93.2 °F 93.3 °F 60.8 °F 34% 29.83 in 6.2 mi SW 4.6 mph - N/A   Mostly Cloudy
12:00 PM 93 °F - 60 °F 24% 29.83 in 12 mi NNE 6.9 mph - -   Partly Cloudy
12:00 PM 93.2 °F 93.3 °F 60.8 °F 34% 29.81 in 6.2 mi NNE 6.9 mph - N/A   Scattered Clouds
1:00 PM 91.4 °F 94.0 °F 66.2 °F 43% 29.78 in 6.2 mi West 12.7 mph - N/A   Scattered Clouds
2:00 PM 91.4 °F 94.0 °F 66.2 °F 43% 29.76 in 6.2 mi West 10.4 mph - N/A   Scattered Clouds
3:00 PM 91 °F - 62 °F 28% 29.76 in 12 mi West 13.8 mph - -   Overcast
3:00 PM 91.4 °F 92.1 °F 62.6 °F 38% 29.75 in 6.2 mi West 13.8 mph - N/A   Scattered Clouds
4:00 PM 87.8 °F 89.4 °F 64.4 °F 46% 29.75 in 6.2 mi West 13.8 mph - N/A   Scattered Clouds
5:00 PM 86.0 °F 88.2 °F 66.2 °F 51% 29.76 in 6.2 mi West 11.5 mph - N/A   Scattered Clouds
6:00 PM 84 °F - 66 °F 46% 29.78 in 12 mi SW 8.1 mph - -   Overcast
6:00 PM 84.2 °F 86.6 °F 66.2 °F 55% 29.77 in 6.2 mi SW 8.1 mph - N/A   Mostly Cloudy
7:00 PM 82.4 °F 85.4 °F 68.0 °F 62% 29.79 in 6.2 mi NW 3.5 mph - N/A   Mostly Cloudy
8:00 PM 80.6 °F 83.9 °F 69.8 °F 70% 29.81 in 6.2 mi WNW 2.3 mph - N/A   Mostly Cloudy